Location: *
(50.6089°N, 2.2719°E)
Time: 09:11:39
(UTC+00:00)

CZ-4 R/B - Pass Details

Date: 18 October 2019
Orbit: 529 x 601 km, 97.8° (Epoch: 20 November)

Event Time Altitude Azimuth Distance (km) Brightness Sun altitude
Rises 18:18:36 0° 176° (S) 2,804 4.9 -14.2°
Reaches altitude 10° 18:20:46 10° 181° (S) 1,917 4.1 -14.6°
Maximum altitude 18:24:52 55° 259° (W) 727 2.3 -15.2°
Drops below altitude 10° 18:29:03 10° 338° (NNW) 1,955 4.4 -15.9°
Sets 18:31:17 0° 343° (NNW) 2,865 5.3 -16.2°
